Regional Weather Roundup
Issued by NWS

Home | Current Version | Previous Version | Graphics & Text | Print | Product List | Glossary On
Versions: 1 2 3 4 5 6 7 8 9 10 11 12 13 14 15 16 17 18 19 20 21 22 23 24 25 26 27 28 29 30 31 32 33 34 35 36 37 38 39 40 41 42 43 44 45 46 47 48 49 50
521
ASUS43 KFSD 280210
RWRSD

WEATHER ROUNDUP FOR SOUTH DAKOTA
NATIONAL WEATHER SERVICE SIOUX FALLS SD
900 PM CDT SAT AUG 27 2016

NOTE: "FAIR" INDICATES FEW OR NO CLOUDS BELOW 12,000 FEET WITH NO
SIGNIFICANT WEATHER AND/OR OBSTRUCTIONS TO VISIBILITY.


SDZ001>005-009-010-012>017-280300-
NORTHWEST AND NORTH CENTRAL SOUTH DAKOTA

CITY           SKY/WX    TMP DP  RH WIND       PRES   REMARKS
BUFFALO          N/A     70  50  49 SE12      29.82R
FAITH            N/A     73  55  53 SE13      29.90R
MOBRIDGE       MOCLDY    69  56  62 SE9G18    29.88S
$$

SDZ012>016-024>037-041>051-057-063-072>074-280300-
SOUTHWEST AND SOUTH CENTRAL SOUTH DAKOTA

CITY           SKY/WX    TMP DP  RH WIND       PRES   REMARKS
RAPID CTY ARPT PTCLDY    70  51  51 SE5       29.90S
PIERRE         PTCLDY    73  56  54 E7        29.88S
CUSTER         CLOUDY    67  41  38 SE5       30.06R
ELLSWORTH AFB  CLOUDY    72  52  49 S6          N/A
PHILIP         CLOUDY    70  61  73 E7        29.89R
PINE RIDGE     CLEAR     75  52  44 S10       29.93R
WINNER         FAIR      76  65  68 SE9       29.91R
$$

SDZ004>011-016>023-039-040-280300-
NORTHEAST SOUTH DAKOTA

CITY           SKY/WX    TMP DP  RH WIND       PRES   REMARKS
ABERDEEN       PTCLDY    67  61  81 SE8       29.92R
WATERTOWN      CLEAR     69  62  78 S8        29.98R
BROOKINGS      CLEAR     68  63  84 S9        29.99R
SISSETON         N/A     66  62  87 SE7       29.96R
$$

SDZ017-020-022-023-036>040-048>070-280300-
SOUTHEAST SOUTH DAKOTA

CITY           SKY/WX    TMP DP  RH WIND       PRES   REMARKS
SIOUX FALLS    PTCLDY    72  65  78 SE8       30.00R
HURON          CLEAR     73  63  70 SE9       29.93R
CHAMBERLAIN    PTCLDY    76  63  63 E7        29.92R
MITCHELL       CLEAR     73  64  73 SE9       29.95R
YANKTON        CLEAR     72  64  78 SE8       29.96S
$$

ABBREVIATIONS USED IN REMARKS
   TC - TEMPERATURE IN CELSIUS
  WCI - WIND CHILL INDEX
   HX - HEAT INDEX
  VSB - VISIBILITY





USA.gov is the U.S. government's official web portal to all federal, state and local government web resources and services.